AirNav   Pilot Hours Calculator
 
 1099 users online  

71CL Gunnersfield Ranch Airport
Delevan, California, USA

GOING TO DELEVAN?


FAA INFORMATION EFFECTIVE 02 JANUARY 2020

Location

FAA Identifier: 71CL
Lat/Long: 39-21-09.5910N 122-05-37.9160W
39-21.159850N 122-05.631933W
39.3526642,-122.0938656
(estimated)
Elevation: 62 ft. / 19 m (estimated)
Variation: 17E (1985)
From city: 4 miles E of DELEVAN, CA
Time zone: UTC -8 (UTC -7 during Daylight Saving Time)
Zip code: 95932

Airport Operations

Airport use: Private use. Permission required prior to landing
Activation date: 05/1965
Control tower: no
ARTCC: OAKLAND CENTER
FSS: RANCHO MURIETA FLIGHT SERVICE STATION
Attendance: UNATNDD
Wind indicator: yes
Segmented circle: no
Lights: FOR RWY LGTS PHONE 916-438-2316.
Beacon: white-green (lighted land airport)
FOR RTG BCN PHONE 916-438-2316.

Airport Communications

UNICOM: 122.8
  • UNICOM OPERATED AS REQUIRED.

Nearby radio navigation aids

VOR radial/distance  VOR name  Freq  Var
ILAr332/17.2WILLIAMS VORTAC114.4018E
CICr188/28.6CHICO VOR/DME109.8016E
MYVr286/28.6MARYSVILLE VOR/DME110.8016E

Airport Services

Airframe service: NONE
Powerplant service: NONE

Runway Information

Runway 16/34

Dimensions: 2570 x 40 ft. / 783 x 12 m
Surface: asphalt
Runway edge lights: low intensity
RUNWAY 16  RUNWAY 34
Traffic pattern: leftleft
Obstructions: none4 ft. levee, 20 ft. from runway

Airport Ownership and Management from official FAA records

Ownership: Privately-owned
Owner: JON B. CHANEY
PO BOX 626
MAXWELL, CA 95955
Phone 916-438-2504
Manager: DOUGLAS MC GEOGHEGAN
PO BOX 626
MAXWELL, CA 95955
Phone 916-438-2504

Airport Operational Statistics

Aircraft based on the field: 1
Single engine airplanes: 1
    

Additional Remarks

LGTD/MKD HANGER NEAR RWY.
FOR CD CTC OAKLAND ARTCC AT 510-745-3380.

Instrument Procedures

There are no published instrument procedures at 71CL.

Some nearby airports with instrument procedures:

KWLW - Willows-Glenn County Airport (11 nm NW)
O08 - Colusa County Airport (11 nm SE)
O37 - Haigh Field Airport (22 nm N)
KOVE - Oroville Municipal Airport (23 nm E)
KCIC - Chico Municipal Airport (29 nm N)
 
Loc | Ops | Rwys | IFR | FBO | Links
Com | Nav | Svcs | Stats | Notes

Sonoma Jet Center
 
Area around 71CL (Gunnersfield Ranch Airport)
 
Road maps at: MapQuest Bing Google
 
Aerial photo
No photo
 
Sectional chart

 
Airport distance calculator
Flying to Gunnersfield Ranch Airport? Find the distance to fly.

From to 71CL

Sunrise and sunset
Times for 22-Jan-2020
 Local
(UTC-8)
 Zulu
(UTC)
Morning civil twilight06:5514:55
Sunrise07:2415:24
Sunset17:1601:16
Evening civil twilight17:4501:45

Current date and time
Zulu (UTC)  23-Jan-2020 03:06:01
Local (UTC-8)  22-Jan-2020 19:06:01
 
METAR
KOVE 
24nm E 
230253Z AUTO 02003KT 10SM CLR 12/08 A3026 RMK AO2 SLP248 T01170083 51006
KCIC 
29nm NE 
230147Z 32006KT 10SM FEW060 SCT120 BKN200 12/09 A3026
KMYV 
29nm SE 
230253Z AUTO 35003KT 10SM CLR 12/08 A3025 RMK AO2 SLP248 T01170083 53007
KBAB 
33nm SE 
230258Z 01004KT 10SM CLR 10/08 A3024 RMK AO2A SLP245 SLP ESTMD T01000081 52006 $
KLHM 
44nm SE 
230255Z AUTO 00000KT 10SM CLR 10/08 A3024 RMK AO1
KO54 
45nm N 
230255Z AUTO 00000KT 2SM OVC004 07/06 A3027 RMK AO1
KSMF 
45nm SE 
230253Z 32003KT 10SM CLR 11/07 A3025 RMK AO2 SLP241 T01110072 53006
TAF
KBAB 
33nm SE 
222142Z 2221/2401 VRB06KT 9999 SCT007 SCT015 QNH3024INS BECMG 2301/2302 VRB06KT 9999 BKN010 QNH3022INS TEMPO 2302/2314 1600 BR BKN005 BECMG 2313/2314 VRB06KT 9999 BKN010 QNH3014INS TX16/2223Z TN06/2313Z
NOTAMs
Click for the latest NOTAMs
NOTAMs are issued by the DoD/FAA and will open in a separate window not controlled by AirNav.

 

 
 

Would you like to see your business listed on this page?

 If your business provides an interesting product or service to pilots, flight crews, aircraft, or users of the Gunnersfield Ranch Airport, you should consider listing it here.  To start the listing process, click on the button below
 
Add a business
 

Other Pages about Gunnersfield Ranch Airport

Update a link
 
Copyright © AirNav, LLC. All rights reserved. Privacy Policy  Contact